Weather History for KNKT - January, 2013

Change the Weather History Date:

Friday, January 18, 2013

  Actual Average Record
Temperature  
Mean Temperature 42 °F -  
Max Temperature 48 °F 51 °F 70 °F (1999)
Min Temperature 37 °F 32 °F 14 °F (1997)
Degree Days  
Heating Degree Days 22    
Moisture  
Dew Point 31 °F    
Average Humidity 68    
Maximum Humidity 87    
Minimum Humidity 41    
Precipitation  
Precipitation 0.01 in - - ()
Sea Level Pressure  
Sea Level Pressure 30.34 in    
Wind  
Wind Speed 13 mph ()    
Max Wind Speed 22 mph    
Max Gust Speed 30 mph    
Visibility 9.7 miles    
Events Rain    
Averages and records for this station are not official NWS values.
T = Trace of Precipitation, MM = Missing Value Source: Averaged Metar Reports

Daily Weather History Graph

Daily Weather History Graph

Search for Another Location

Airport or City:

Trip Planner

Search our weather history database for the weather conditions in past years. The results will help you decide how hot, cold, wet, or windy it might be!

Date:

Astronomy

Jan. 18, 2013 Rise Set
Actual Time 7:13 AM EST 5:22 PM EST
Civil Twilight 6:46 AM EST 5:49 PM EST
Nautical Twilight 6:15 AM EST 6:20 PM EST
Astronomical Twilight 5:45 AM EST 6:51 PM EST
Moon 11:10 AM EST (1/18) No Moon Set
Length of Visible Light 11h 03m
Length of Day
10h 08m
Waxing Crescent, 47% of the Moon is Illuminated
Jan 18
Waxing Crescent
Jan 18
First Quarter
Jan 26
Full
Feb 3
Last Quarter
Feb 10
New

Hourly Weather History & Observations

Time (EST) Temp. Windchill Dew Point Humidity Pressure Visibility Wind Dir Wind Speed Gust Speed Precip Events Conditions
12:54 AM 44.1 °F 36.2 °F 39.0 °F 82% 29.99 in 1.5 mi North 18.4 mph 27.6 mph 0.01 in   Overcast
1:00 AM 44.6 °F 37.4 °F 39.2 °F 81% 30.02 in 10.0 mi North 16.1 mph 27.6 mph N/A   Overcast
1:54 AM 43.0 °F 34.8 °F 37.9 °F 82% 30.09 in 10.0 mi North 18.4 mph 28.8 mph 0.00 in Rain Light Rain
2:17 AM 42.8 °F 33.8 °F 37.4 °F 81% 30.11 in 10.0 mi North 21.9 mph 27.6 mph 0.00 in Rain Light Rain
2:54 AM 41.0 °F 32.8 °F 37.0 °F 86% 30.11 in 10.0 mi North 16.1 mph 29.9 mph 0.00 in   Overcast
3:10 AM 39.2 °F 30.5 °F 35.6 °F 87% 30.12 in 10.0 mi North 16.1 mph - N/A   Overcast
3:54 AM 39.9 °F 31.1 °F 36.0 °F 86% 30.18 in 10.0 mi North 17.3 mph 26.5 mph N/A   Overcast
4:54 AM 39.9 °F 30.2 °F 35.1 °F 83% 30.20 in 10.0 mi North 20.7 mph 27.6 mph N/A   Mostly Cloudy
5:54 AM 39.0 °F 29.9 °F 34.0 °F 82% 30.25 in 10.0 mi North 17.3 mph 24.2 mph N/A   Mostly Cloudy
6:47 AM 39.2 °F 31.2 °F 33.8 °F 81% 30.30 in 10.0 mi North 13.8 mph - N/A   Scattered Clouds
6:54 AM 37.9 °F 30.0 °F 33.1 °F 83% 30.29 in 10.0 mi North 12.7 mph - N/A   Scattered Clouds
7:54 AM 39.0 °F 32.3 °F 34.0 °F 82% 30.33 in 10.0 mi NNW 10.4 mph - N/A   Clear
8:54 AM 39.9 °F 31.8 °F 34.0 °F 79% 30.38 in 10.0 mi NNW 15.0 mph - N/A   Clear
9:54 AM 42.1 °F 35.2 °F 32.0 °F 67% 30.43 in 10.0 mi North 12.7 mph - N/A   Partly Cloudy
10:54 AM 44.1 °F 37.4 °F 32.0 °F 63% 30.44 in 10.0 mi North 13.8 mph - N/A   Clear
11:54 AM 46.9 °F - 30.9 °F 54% 30.42 in 10.0 mi North 16.1 mph - N/A   Scattered Clouds
12:54 PM 48.0 °F - 28.9 °F 48% 30.41 in 10.0 mi NNE 15.0 mph 20.7 mph N/A   Partly Cloudy
1:54 PM 48.9 °F - 28.9 °F 46% 30.43 in 10.0 mi NNE 13.8 mph - N/A   Partly Cloudy
2:54 PM 48.9 °F - 27.0 °F 43% 30.43 in 10.0 mi NNE 12.7 mph - N/A   Clear
3:54 PM 48.0 °F - 25.0 °F 41% 30.45 in 10.0 mi NNE 16.1 mph - N/A   Clear
4:54 PM 46.0 °F 39.9 °F 24.1 °F 42% 30.47 in 10.0 mi NE 13.8 mph - N/A   Clear
5:54 PM 42.1 °F 38.4 °F 25.0 °F 51% 30.50 in 10.0 mi NE 5.8 mph - N/A   Partly Cloudy
6:54 PM 41.0 °F 36.4 °F 26.1 °F 55% 30.53 in 10.0 mi NE 6.9 mph - N/A   Partly Cloudy
7:54 PM 41.0 °F 35.8 °F 27.0 °F 57% 30.53 in 10.0 mi NE 8.1 mph - N/A   Partly Cloudy
8:54 PM 39.0 °F 33.4 °F 25.0 °F 57% 30.53 in 10.0 mi NE 8.1 mph - N/A   Clear
9:54 PM 39.9 °F 34.5 °F 28.0 °F 63% 30.53 in 10.0 mi ENE 8.1 mph - N/A   Clear
10:54 PM 39.0 °F 34.8 °F 28.9 °F 67% 30.52 in 10.0 mi NE 5.8 mph - N/A   Clear
11:54 PM 37.0 °F 31.0 °F 27.0 °F 67% 30.50 in 10.0 mi NE 8.1 mph - N/A   Clear